Current weather by "City, St" or "zip code"  
 

Current Conditions: HOTEL MADIS

Thunderstorms


85.8 F

Last Updated on Jul 17 2024, 01:55 PM MDT
Humidity: 38%
Wind Speed: S 9.2 mph
Barometer 30.19 in
Dewpoint: 57.2 F
Visibility: 10.00 mi
Precip: --
Heat Index: 84.7 F
Wind Chill: NA
Current conditions at:

HOTEL MADIS (K1HW)

Lat: 41.32 Lon: 102.83

active severe weather and emergency alerts image weather storm and storm spotter reports image weather observation monitoring service image
Active
Alerts
Storm Reports Obs
Monitoring

Sign-up For Email & Text Message Weather Alert Notification Services



Advertise Here

Observation History for HOTEL MADIS


Time Wind
(mph)
Vis
(mi)
Weather Precip (in) Temperature (F) Relative
Humidity
Wind
Chill
(F)
Heat
Index
(F)
Pressure
Air Dwpt altimeter
(in)
sea level
(mb)
Rmks
01:55 PM MDT S 9.2 10.00 Thunderstorms -- 85.8 57.2 38% NA 84.7 30.19 1022.4
12:55 PM MDT 0.0 10.00 Clear -- 83.3 59.7 45% NA 83.3 30.20 1022.7
11:55 AM MDT SE 9.2 10.00 Clear -- 79.3 62.2 56% NA 79.5 30.23 1023.7
07:55 AM MDT 0.0 2.25 Fog/Mist Trace 62.8 62.2 98% NA NA 30.23 1023.7
06:55 AM MDT 0.0 0.37 Light Rain and Fog Trace 61.9 61.5 99% NA NA 30.20 1022.7
05:55 AM MDT 0.0 0.63 Light Rain and Fog/Mist Trace 61.3 61.0 99% NA NA 30.19 1022.4
04:55 AM MDT 3.4 0.25 Light Rain and Fog -- 59.5 59.2 99% NA NA 30.18 1022.0
03:55 AM MDT 3.4 2.00 Fog/Mist -- 59.9 59.4 98% NA NA 30.16 1021.3
02:55 AM MDT SE 4.7 7.00 Mostly Clear -- 61.7 60.8 97% NA NA 30.15 1021.0
01:55 AM MDT 5.8 10.00 Clear -- 63.0 60.8 93% NA NA 30.14 1020.7
12:55 AM MDT 5.8 10.00 Clear -- 64.9 61.5 89% NA NA 30.14 1020.7
11:55 PM MDT 8.1 10.00 Clear -- 67.3 61.5 82% NA NA 30.14 1020.7
10:55 PM MDT E 11.4 10.00 Clear -- 69.4 59.5 71% NA NA 30.13 1020.3
09:55 PM MDT E 15.0 10.00 Clear -- 73.2 59.9 63% NA 73.2 30.12 1019.7
08:55 PM MDT NE 10.3 10.00 Clear -- 75.7 54.0 47% NA 75.2 30.08 1018.6
07:55 PM MDT NE 9.2 10.00 Clear -- 81.9 50.7 34% NA 80.8 30.06 1018.0
06:55 PM MDT NE 13.9 10.00 Clear -- 87.1 50.0 28% NA 84.6 30.04 1017.3
05:55 PM MDT 15.0 10.00 Clear -- 89.2 47.7 24% NA 86.0 30.03 1016.9
04:55 PM MDT 12.8 10.00 Clear -- 91.4 44.6 20% NA 87.6 30.02 1016.6
03:55 PM MDT 11.4 10.00 Clear -- 91.2 46.9 22% NA 87.8 30.03 1016.9
02:55 PM MDT 10.00 Mostly Clear -- 91.0 49.1 24% NA 88.0 30.04 1017.3
01:55 PM MDT 9.00 Clear -- 89.6 49.1 25% NA 86.5 30.03 1016.9
12:55 PM MDT 3.4 10.00 Clear -- 89.1 49.6 26% NA 86.2 30.04 1017.3
11:55 AM MDT SW 4.7 7.00 Clear -- 84.6 54.7 36% NA 83.3 30.06 1018.0

Regional Weather Observation


HOTEL MADIS (K1HW)

Thunderstorms
85.8 F

SIDNEY (KSNY)

NULL
84.0 F

FOXTROT MADIS (K1FW)

Clear
NULL F

SCOTTSBLUFF (KBFF)

Clear
90.0 F

KIMBALL MUNI (KIBM)

Thunderstorms and Rain
80.8 F